Temp
-17 -17 -17 -17 -16 -16 -16 -16 -16 -15 -15 -15 -15 -15 -15 -15 -15 -15 -15 -15 -15 -14 -14 -14 -14 -13 -13 -13 -13 -13 -13 -13 -13 -12 -13 -13 -13 -13 -12 -12 -12 -11 -11 -11 -11 -11 -11 -11 -11 -11 -11 -11
-17 -17 -17 -17 -17 -17 -17 -16 -16 -16 -16 -16 -15 -15 -15 -15 -15 -15 -15 -16 -16 -15 -15 -15 -14 -14 -14 -14 -13 -13 -13 -13 -13 -13 -13 -13 -13 -13 -13 -13 -12 -12 -12 -11 -11 -11 -11 -11 -12 -11 -11 -11
-18 -18 -18 -17 -17 -17 -17 -17 -17 -17 -16 -16 -16 -16 -16 -16 -16 -15 -15 -16 -16 -16 -16 -16 -15 -15 -15 -15 -14 -14 -14 -14 -14 -13 -13 -13 -13 -13 -13 -13 -13 -12 -12 -12 -11 -11 -11 -11 -12 -12 -12 -12
-18 -18 -18 -18 -18 -18 -17 -17 -17 -17 -17 -17 -17 -16 -16 -16 -16 -16 -16 -16 -16 -16 -16 -16 -16 -16 -16 -16 -15 -14 -14 -14 -14 -14 -14 -14 -14 -14 -14 -13 -13 -13 -12 -12 -12 -12 -11 -11 -12 -12 -12 -12
-19 -19 -19 -19 -18 -18 -18 -18 -18 -18 -17 -17 -17 -17 -17 -17 -17 -16 -16 -16 -16 -16 -17 -17 -17 -17 -16 -16 -16 -16 -15 -15 -14 -14 -14 -14 -14 -14 -14 -14 -14 -13 -13 -13 -12 -12 -12 -11 -12 -12 -12 -12
-19 -19 -19 -19 -19 -19 -19 -19 -18 -18 -18 -18 -18 -17 -17 -17 -17 -17 -17 -17 -17 -17 -17 -17 -17 -17 -17 -17 -17 -17 -16 -16 -16 -15 -14 -14 -14 -14 -14 -14 -14 -14 -14 -13 -13 -13 -12 -12 -12 -12 -12 -12
-20 -20 -20 -20 -20 -19 -19 -19 -19 -19 -19 -19 -18 -18 -18 -18 -18 -17 -17 -17 -17 -17 -17 -17 -17 -17 -17 -17 -17 -17 -17 -17 -17 -16 -15 -15 -14 -14 -14 -14 -14 -14 -14 -14 -13 -13 -13 -13 -12 -12 -12 -12
-21 -21 -21 -21 -20 -20 -20 -20 -20 -19 -19 -19 -19 -19 -18 -18 -18 -18 -18 -18 -17 -17 -17 -17 -18 -18 -18 -18 -17 -17 -17 -17 -17 -17 -16 -15 -15 -15 -14 -14 -14 -14 -14 -14 -14 -14 -13 -13 -13 -13 -12 -12
-22 -22 -22 -22 -21 -21 -21 -21 -20 -20 -20 -20 -19 -19 -19 -19 -19 -18 -18 -18 -18 -18 -18 -18 -18 -18 -18 -18 -18 -18 -17 -17 -17 -17 -17 -17 -16 -16 -15 -14 -14 -14 -14 -14 -14 -14 -14 -13 -13 -13 -13 -13
-23 -23 -22 -22 -22 -22 -22 -21 -21 -21 -21 -20 -20 -20 -20 -19 -19 -19 -19 -18 -18 -18 -18 -18 -18 -18 -18 -18 -18 -18 -18 -18 -18 -17 -17 -17 -17 -17 -16 -15 -15 -14 -14 -14 -14 -14 -14 -14 -13 -13 -13 -13
-24 -23 -23 -23 -22 -22 -22 -22 -22 -21 -21 -21 -21 -20 -20 -20 -20 -19 -19 -19 -19 -18 -18 -18 -18 -18 -18 -18 -18 -19 -18 -18 -18 -18 -18 -18 -18 -18 -17 -17 -16 -15 -14 -14 -15 -14 -14 -14 -13 -14 -13 -13
-24 -24 -23 -23 -23 -23 -22 -22 -22 -22 -22 -22 -21 -21 -21 -21 -20 -20 -20 -19 -19 -19 -19 -18 -18 -18 -18 -18 -18 -19 -19 -19 -18 -18 -18 -18 -18 -18 -18 -18 -17 -16 -16 -15 -15 -15 -15 -14 -14 -14 -14 -14
-25 -24 -24 -24 -23 -23 -23 -23 -22 -22 -22 -22 -22 -22 -21 -21 -21 -21 -20 -20 -20 -19 -19 -19 -19 -18 -18 -18 -18 -18 -19 -19 -19 -19 -19 -18 -18 -18 -18 -18 -18 -17 -17 -16 -15 -15 -15 -14 -14 -14 -14 -14
-25 -25 -25 -24 -24 -24 -23 -23 -23 -23 -22 -22 -22 -22 -22 -22 -21 -21 -21 -21 -20 -20 -20 -20 -19 -19 -19 -19 -18 -18 -18 -19 -19 -19 -19 -19 -19 -19 -19 -18 -18 -18 -18 -17 -16 -16 -16 -15 -14 -14 -14 -14
-25 -25 -25 -25 -25 -24 -24 -24 -23 -23 -23 -23 -23 -22 -22 -22 -22 -22 -21 -21 -21 -21 -20 -20 -20 -20 -19 -19 -19 -19 -19 -18 -19 -19 -19 -19 -19 -19 -19 -19 -18 -18 -18 -18 -17 -16 -16 -16 -15 -15 -14 -14
-26 -25 -25 -25 -25 -25 -25 -24 -24 -24 -23 -23 -23 -23 -23 -22 -22 -22 -22 -22 -21 -21 -21 -21 -20 -20 -20 -20 -19 -19 -19 -19 -19 -19 -19 -19 -19 -20 -19 -19 -19 -19 -19 -18 -17 -17 -16 -16 -16 -16 -15 -15
-26 -26 -26 -26 -26 -25 -25 -25 -25 -25 -24 -24 -23 -23 -23 -23 -23 -23 -22 -22 -22 -22 -21 -21 -21 -21 -20 -20 -20 -20 -19 -19 -19 -19 -19 -19 -19 -19 -19 -19 -19 -19 -19 -19 -18 -17 -17 -17 -16 -16 -16 -16
-27 -26 -26 -26 -26 -26 -26 -25 -25 -25 -25 -24 -24 -24 -23 -23 -23 -23 -23 -23 -22 -22 -22 -22 -21 -21 -21 -21 -20 -20 -20 -20 -20 -19 -19 -19 -19 -19 -19 -19 -19 -19 -19 -20 -19 -18 -17 -17 -16 -17 -17 -16
-27 -27 -27 -26 -26 -26 -26 -25 -25 -25 -25 -25 -25 -24 -24 -23 -23 -23 -23 -23 -23 -23 -22 -22 -22 -22 -21 -21 -21 -21 -20 -20 -20 -20 -20 -20 -19 -19 -20 -19 -19 -19 -19 -19 -19 -19 -18 -18 -17 -17 -17 -17
-28 -28 -27 -27 -27 -26 -26 -26 -25 -25 -25 -25 -25 -25 -24 -24 -24 -23 -23 -23 -23 -23 -23 -22 -22 -22 -22 -22 -21 -21 -21 -21 -21 -20 -20 -20 -20 -20 -20 -20 -20 -19 -20 -20 -20 -20 -19 -19 -18 -17 -17 -17
-29 -28 -28 -28 -27 -27 -27 -26 -26 -26 -25 -25 -25 -25 -25 -25 -24 -24 -23 -23 -23 -23 -23 -23 -23 -22 -22 -22 -22 -22 -21 -21 -21 -21 -21 -21 -20 -20 -20 -20 -20 -20 -20 -20 -21 -20 -20 -19 -19 -18 -18 -17
-30 -29 -29 -28 -28 -28 -28 -27 -27 -27 -26 -26 -26 -26 -25 -25 -24 -24 -24 -24 -23 -23 -23 -23 -23 -23 -23 -22 -22 -22 -22 -22 -21 -21 -21 -21 -21 -21 -21 -20 -21 -20 -20 -20 -21 -20 -21 -20 -19 -19 -18 -18
-30 -30 -30 -29 -29 -28 -28 -28 -28 -27 -27 -27 -26 -26 -26 -26 -25 -25 -24 -24 -24 -23 -23 -23 -23 -23 -23 -23 -22 -22 -22 -22 -22 -22 -21 -21 -21 -21 -21 -21 -21 -21 -20 -20 -20 -20 -20 -20 -19 -19 -19 -18
-30 -30 -30 -30 -29 -29 -29 -28 -28 -28 -28 -28 -27 -27 -26 -26 -26 -25 -25 -24 -24 -24 -23 -23 -23 -23 -23 -23 -23 -22 -22 -22 -22 -22 -22 -22 -21 -21 -21 -21 -21 -21 -21 -21 -21 -20 -20 -20 -20 -19 -19 -19
-30 -30 -30 -30 -30 -29 -29 -29 -29 -28 -28 -28 -28 -27 -27 -27 -26 -26 -26 -25 -25 -24 -24 -24 -23 -23 -23 -23 -23 -23 -22 -22 -22 -22 -22 -22 -22 -22 -21 -21 -21 -21 -21 -21 -21 -21 -20 -20 -20 -20 -20 -19
-30 -31 -30 -30 -30 -30 -30 -29 -29 -29 -28 -28 -28 -28 -28 -27 -27 -27 -26 -26 -26 -25 -25 -24 -24 -24 -23 -23 -23 -23 -23 -23 -23 -22 -22 -22 -22 -22 -22 -22 -22 -21 -21 -21 -21 -21 -21 -20 -20 -20 -20 -20
-31 -31 -31 -30 -30 -30 -30 -30 -30 -29 -29 -29 -28 -28 -28 -28 -28 -27 -27 -27 -26 -26 -26 -25 -24 -24 -24 -23 -23 -23 -23 -23 -23 -23 -22 -22 -22 -22 -22 -22 -22 -22 -22 -21 -21 -21 -21 -21 -21 -20 -20 -20
-31 -31 -31 -31 -30 -30 -30 -30 -30 -30 -30 -29 -29 -28 -28 -28 -28 -28 -27 -27 -27 -27 -26 -26 -25 -25 -25 -24 -24 -23 -23 -23 -23 -23 -23 -23 -22 -22 -22 -22 -22 -22 -22 -22 -21 -21 -21 -21 -21 -21 -20 -20
-31 -31 -31 -31 -31 -30 -30 -30 -30 -30 -30 -30 -30 -29 -29 -28 -28 -28 -28 -28 -27 -27 -27 -27 -26 -26 -25 -25 -25 -24 -24 -23 -23 -23 -23 -23 -23 -23 -22 -22 -22 -22 -22 -22 -22 -22 -21 -21 -21 -21 -21 -21
-31 -31 -31 -31 -31 -31 -30 -30 -30 -30 -30 -30 -30 -30 -30 -29 -29 -28 -28 -28 -28 -28 -28 -27 -27 -27 -26 -26 -26 -25 -25 -24 -24 -23 -23 -23 -23 -23 -23 -22 -22 -22 -22 -22 -22 -22 -22 -21 -21 -21 -21 -21
-31 -31 -32 -32 -31 -31 -31 -31 -31 -31 -31 -31 -31 -30 -30 -30 -29 -29 -28 -28 -28 -28 -28 -28 -28 -28 -27 -27 -27 -26 -26 -25 -25 -24 -24 -23 -23 -23 -23 -23 -23 -22 -22 -22 -22 -22 -22 -22 -22 -22 -21 -21
Height
5684 5684 5685 5685 5685 5686 5688 5688 5690 5691 5692 5692 5693 5695 5697 5697 5698 5700 5702 5703 5704 5706 5710 5713 5715 5718 5720 5721 5722 5723 5726 5729 5731 5734 5737 5739 5741 5743 5745 5748 5750 5753 5755 5758 5762 5765 5767 5769 5772 5773 5776 5778
5674 5675 5675 5676 5676 5678 5679 5680 5681 5682 5683 5684 5685 5686 5688 5690 5691 5692 5694 5695 5697 5699 5701 5704 5707 5710 5712 5714 5715 5717 5720 5722 5724 5727 5730 5732 5734 5735 5738 5740 5743 5746 5748 5751 5754 5758 5761 5764 5766 5768 5770 5772
5665 5665 5666 5666 5667 5668 5669 5671 5672 5673 5674 5676 5677 5678 5680 5682 5683 5685 5686 5687 5689 5691 5693 5695 5699 5702 5704 5706 5707 5710 5713 5714 5716 5720 5722 5724 5726 5728 5730 5733 5736 5738 5741 5744 5747 5751 5754 5757 5759 5761 5764 5767
5655 5655 5656 5657 5658 5659 5660 5661 5663 5664 5665 5667 5668 5670 5671 5673 5675 5677 5679 5680 5681 5684 5687 5688 5691 5694 5697 5698 5700 5703 5705 5706 5709 5711 5714 5716 5719 5721 5723 5726 5729 5731 5735 5738 5741 5744 5747 5750 5752 5754 5757 5760
5645 5645 5646 5647 5649 5650 5651 5652 5653 5654 5656 5658 5659 5661 5663 5664 5666 5669 5671 5673 5674 5676 5679 5680 5683 5686 5688 5691 5693 5696 5697 5698 5701 5702 5706 5709 5711 5713 5716 5719 5722 5725 5728 5731 5734 5738 5741 5744 5746 5747 5750 5753
5634 5635 5636 5637 5639 5640 5641 5643 5644 5645 5646 5648 5650 5652 5654 5656 5658 5660 5662 5665 5666 5668 5670 5673 5676 5678 5680 5683 5686 5689 5691 5692 5692 5693 5698 5702 5703 5705 5707 5711 5715 5718 5721 5724 5727 5731 5734 5738 5739 5741 5743 5746
5624 5625 5626 5627 5628 5629 5631 5633 5634 5636 5637 5639 5641 5643 5645 5647 5649 5651 5653 5656 5658 5660 5662 5665 5667 5670 5672 5675 5678 5681 5684 5685 5685 5686 5690 5694 5696 5698 5699 5702 5707 5711 5714 5717 5720 5723 5727 5731 5733 5735 5737 5740
5613 5614 5616 5617 5618 5619 5621 5622 5624 5626 5628 5630 5632 5634 5635 5637 5639 5642 5644 5647 5649 5652 5654 5657 5659 5661 5664 5666 5670 5672 5675 5677 5678 5680 5683 5686 5689 5691 5692 5695 5698 5702 5706 5709 5712 5715 5719 5723 5725 5728 5731 5733
5602 5603 5604 5606 5607 5609 5610 5612 5614 5615 5617 5620 5622 5624 5626 5628 5630 5633 5635 5638 5640 5643 5646 5649 5651 5653 5655 5658 5661 5663 5666 5669 5671 5674 5676 5678 5680 5683 5685 5687 5690 5694 5697 5701 5704 5708 5711 5715 5718 5721 5724 5727
5591 5592 5593 5594 5596 5598 5599 5601 5603 5605 5607 5609 5612 5614 5617 5619 5621 5623 5626 5628 5631 5634 5637 5640 5643 5645 5647 5649 5652 5655 5658 5660 5663 5666 5669 5672 5673 5676 5678 5680 5683 5686 5689 5693 5695 5699 5703 5706 5710 5714 5717 5720
5579 5580 5582 5583 5584 5587 5589 5591 5593 5595 5596 5599 5601 5604 5607 5609 5611 5614 5617 5619 5621 5624 5628 5631 5634 5637 5639 5641 5643 5646 5649 5651 5655 5658 5662 5664 5666 5669 5671 5673 5676 5678 5681 5684 5686 5690 5693 5697 5703 5706 5710 5713
5567 5569 5571 5572 5574 5576 5578 5580 5582 5584 5586 5588 5590 5593 5597 5600 5600 5604 5607 5609 5612 5615 5618 5621 5624 5627 5630 5632 5635 5638 5640 5643 5646 5650 5653 5656 5659 5663 5664 5666 5668 5671 5673 5675 5678 5681 5683 5689 5695 5699 5702 5706
5555 5557 5560 5562 5564 5566 5568 5569 5571 5573 5575 5578 5580 5583 5587 5589 5590 5594 5597 5599 5603 5605 5608 5611 5614 5617 5620 5623 5626 5629 5632 5635 5638 5641 5645 5648 5652 5656 5658 5660 5662 5664 5666 5667 5670 5672 5675 5680 5685 5691 5695 5698
5544 5547 5549 5551 5553 5555 5557 5559 5560 5562 5564 5567 5569 5572 5576 5579 5580 5583 5586 5589 5593 5596 5599 5601 5604 5607 5611 5614 5616 5620 5624 5627 5630 5633 5637 5640 5644 5647 5650 5653 5655 5656 5658 5660 5662 5664 5668 5671 5676 5681 5686 5690
5535 5536 5538 5540 5542 5544 5546 5548 5550 5551 5553 5555 5558 5561 5565 5568 5570 5573 5576 5579 5583 5586 5589 5591 5594 5597 5600 5603 5606 5610 5614 5618 5621 5624 5628 5632 5635 5640 5643 5645 5647 5648 5650 5652 5654 5657 5661 5664 5668 5672 5677 5681
5525 5526 5527 5529 5530 5532 5534 5537 5539 5540 5542 5544 5546 5549 5553 5556 5559 5562 5565 5569 5573 5576 5578 5581 5584 5587 5590 5593 5596 5600 5604 5609 5612 5615 5619 5623 5626 5631 5635 5638 5639 5639 5642 5645 5647 5650 5654 5657 5660 5663 5668 5672
5514 5515 5516 5518 5519 5521 5523 5525 5527 5529 5530 5533 5535 5538 5541 5544 5548 5551 5554 5558 5562 5565 5568 5571 5574 5577 5580 5583 5586 5590 5595 5599 5601 5605 5609 5613 5617 5622 5627 5630 5630 5631 5633 5636 5639 5643 5646 5649 5652 5656 5660 5664
5503 5504 5506 5508 5509 5510 5512 5514 5517 5518 5520 5522 5524 5526 5529 5532 5536 5539 5543 5546 5550 5553 5557 5561 5564 5567 5570 5573 5577 5581 5585 5589 5591 5595 5599 5603 5607 5612 5616 5619 5621 5622 5624 5627 5631 5635 5637 5640 5645 5649 5652 5655
5494 5495 5497 5499 5500 5501 5503 5504 5506 5508 5509 5512 5514 5516 5518 5520 5524 5528 5531 5534 5538 5542 5546 5550 5553 5557 5560 5563 5567 5571 5574 5578 5581 5585 5589 5593 5597 5601 5605 5608 5611 5613 5615 5618 5623 5627 5630 5633 5636 5640 5644 5647
5487 5489 5490 5491 5493 5494 5494 5495 5497 5498 5499 5501 5504 5506 5507 5509 5513 5516 5519 5522 5526 5530 5534 5538 5542 5546 5549 5553 5557 5561 5565 5568 5571 5575 5579 5582 5586 5590 5594 5597 5601 5605 5608 5610 5613 5617 5621 5625 5629 5632 5635 5639
5478 5480 5481 5482 5484 5485 5485 5486 5487 5488 5490 5492 5494 5496 5497 5499 5502 5506 5509 5511 5514 5518 5522 5526 5530 5534 5538 5542 5546 5550 5554 5558 5562 5565 5569 5572 5575 5579 5583 5587 5591 5595 5599 5602 5604 5607 5612 5616 5620 5624 5626 5630
5468 5470 5470 5471 5473 5474 5475 5477 5478 5479 5481 5482 5484 5485 5487 5489 5492 5496 5498 5500 5503 5507 5511 5515 5519 5523 5526 5530 5534 5539 5544 5548 5552 5555 5558 5561 5565 5568 5573 5577 5581 5585 5588 5592 5595 5598 5602 5605 5610 5615 5618 5621
5458 5459 5459 5460 5462 5463 5465 5467 5468 5469 5471 5472 5473 5474 5476 5479 5482 5485 5487 5488 5492 5496 5500 5503 5507 5511 5515 5518 5523 5528 5533 5537 5541 5544 5548 5551 5554 5558 5563 5567 5571 5575 5578 5581 5585 5589 5593 5596 5600 5605 5609 5613
5449 5449 5449 5450 5451 5453 5455 5457 5457 5458 5460 5462 5462 5464 5467 5470 5472 5474 5476 5478 5481 5485 5489 5492 5495 5499 5504 5507 5512 5517 5521 5525 5529 5533 5537 5540 5544 5548 5552 5557 5561 5565 5567 5571 5575 5579 5583 5587 5591 5595 5599 5604
5441 5441 5440 5440 5441 5443 5445 5446 5447 5447 5449 5451 5452 5454 5457 5460 5462 5464 5466 5468 5471 5475 5477 5480 5484 5489 5493 5496 5500 5505 5510 5514 5518 5522 5526 5530 5533 5537 5542 5547 5551 5554 5556 5560 5565 5570 5574 5577 5581 5585 5590 5594
5436 5434 5432 5432 5432 5433 5435 5436 5436 5437 5438 5439 5441 5444 5447 5449 5451 5454 5455 5458 5461 5464 5466 5468 5473 5477 5480 5483 5488 5493 5498 5502 5506 5511 5515 5518 5522 5527 5531 5536 5540 5543 5546 5550 5556 5560 5562 5567 5572 5576 5580 5585
5430 5428 5426 5425 5425 5425 5425 5426 5426 5427 5428 5429 5431 5433 5436 5438 5441 5443 5445 5448 5451 5453 5455 5458 5461 5464 5467 5471 5476 5480 5486 5490 5495 5499 5503 5506 5511 5515 5519 5525 5530 5532 5535 5540 5545 5548 5551 5559 5564 5566 5570 5576
5424 5422 5420 5418 5418 5418 5418 5418 5418 5418 5418 5419 5421 5423 5424 5427 5429 5431 5434 5437 5440 5443 5445 5447 5450 5453 5456 5460 5463 5468 5473 5478 5483 5487 5491 5494 5498 5502 5507 5513 5518 5521 5524 5529 5534 5537 5542 5550 5551 5555 5562 5567
5419 5417 5415 5413 5412 5412 5412 5411 5411 5411 5411 5411 5411 5412 5413 5415 5417 5419 5422 5425 5428 5432 5434 5437 5439 5441 5445 5448 5451 5455 5461 5466 5471 5475 5479 5482 5486 5490 5495 5501 5506 5509 5513 5518 5522 5526 5532 5538 5540 5546 5553 5555
5413 5411 5409 5408 5407 5406 5406 5405 5405 5404 5404 5404 5403 5403 5403 5404 5406 5407 5410 5413 5416 5420 5422 5426 5428 5430 5434 5437 5439 5442 5448 5454 5459 5463 5467 5470 5474 5478 5483 5488 5493 5498 5503 5507 5511 5515 5522 5527 5530 5536 5541 5543
5406 5405 5403 5402 5401 5400 5400 5399 5399 5398 5397 5397 5396 5396 5395 5395 5396 5396 5398 5400 5403 5407 5410 5414 5417 5418 5423 5427 5427 5430 5436 5442 5446 5450 5455 5458 5461 5466 5470 5474 5480 5487 5492 5495 5499 5505 5511 5515 5520 5525 5529 5534
Wind_Speed
72 72 72 73 73 72 73 74 74 75 75 76 76 75 75 75 76 75 72 70 72 72 70 70 69 68 68 68 68 68 67 66 67 66 64 64 64 64 64 63 63 64 65 66 66 64 62 61 61 61 60 59
73 73 73 73 73 73 73 74 74 75 75 75 76 75 74 73 74 76 73 70 70 71 71 71 69 68 69 69 70 70 69 68 68 68 66 64 64 65 65 65 65 65 65 65 66 66 64 62 61 61 61 60
74 74 74 74 74 74 74 74 74 74 75 75 75 75 74 73 72 74 74 71 70 70 70 70 69 67 67 67 69 70 69 69 68 68 68 66 65 65 65 66 67 66 66 66 65 66 66 64 63 62 62 61
75 75 75 75 75 75 75 74 74 74 74 74 74 75 74 74 73 73 73 72 71 70 69 69 68 66 66 66 69 71 70 71 71 70 69 68 67 66 66 66 67 68 68 67 67 66 66 66 65 64 63 62
76 75 75 75 75 75 75 75 75 75 75 74 74 74 74 74 74 73 73 73 72 71 70 69 67 64 65 64 63 65 67 68 71 72 71 70 69 69 68 67 66 67 68 69 68 68 66 66 67 66 65 64
76 76 76 76 76 76 75 75 75 75 74 74 74 74 74 74 74 73 73 72 72 72 71 70 67 65 64 63 59 55 54 55 61 68 69 70 71 71 71 70 68 68 68 69 69 69 68 67 67 67 67 66
75 76 76 76 76 76 76 76 75 75 75 75 74 74 74 74 74 73 73 72 71 71 71 69 68 66 64 63 62 59 54 53 57 63 65 67 69 71 72 72 71 70 69 69 69 70 69 68 68 68 68 67
75 75 75 75 75 75 75 75 75 75 75 75 75 74 74 74 74 74 73 72 71 71 70 69 68 66 64 63 64 65 63 61 62 64 65 67 68 69 72 73 73 72 71 71 70 71 71 70 69 69 69 68
75 75 75 75 75 75 75 75 75 75 75 75 75 75 74 74 74 74 74 74 73 72 70 70 69 67 66 65 64 66 67 66 66 65 65 65 66 68 70 73 74 74 73 72 72 72 72 71 71 70 70 70
74 75 76 76 75 75 75 75 75 75 75 75 75 75 75 75 75 74 74 74 74 73 72 71 70 69 68 66 65 66 68 68 68 67 64 62 62 64 67 71 73 75 74 73 73 74 74 74 73 72 71 70
74 76 76 77 77 76 76 75 75 75 75 75 75 75 75 75 76 76 75 75 75 75 74 73 72 71 70 69 68 66 67 68 68 68 65 62 61 61 64 67 70 73 75 74 74 74 75 76 74 73 72 72
75 75 76 77 78 78 77 77 76 76 76 76 76 76 75 75 76 76 76 76 76 76 76 75 74 73 73 72 71 69 68 68 68 67 66 64 62 61 62 64 67 69 73 74 74 74 75 77 76 74 73 73
74 74 75 75 76 78 79 79 78 78 77 77 76 76 75 75 76 76 76 77 77 77 77 77 77 76 75 75 74 73 71 70 68 68 67 67 64 62 60 61 65 67 71 74 74 73 74 76 77 75 74 73
75 74 74 75 75 76 77 79 80 80 79 78 78 77 77 76 76 76 76 77 77 77 78 78 78 78 77 77 76 76 74 73 72 70 69 68 66 65 62 63 66 69 72 74 73 73 73 74 76 76 74 73
76 76 76 75 75 75 76 77 79 80 81 80 80 79 78 78 77 77 77 77 77 77 78 78 79 79 79 79 78 78 77 76 75 74 72 70 68 65 64 67 71 74 75 74 73 73 71 71 73 74 75 74
76 77 77 77 76 76 76 76 77 79 81 81 82 81 80 79 79 79 79 78 78 77 78 78 79 79 80 80 80 79 79 78 77 77 75 74 71 66 63 66 69 72 75 76 76 75 73 71 71 72 73 74
74 76 77 77 77 77 77 77 77 78 80 81 82 82 82 82 80 80 80 80 79 79 79 79 79 79 80 81 81 81 80 79 79 79 78 77 76 70 67 65 66 67 68 71 76 76 75 73 71 71 72 72
74 75 76 77 78 78 78 78 78 78 79 80 82 83 83 84 83 82 81 81 81 81 81 81 80 80 80 81 81 81 81 81 80 81 80 79 79 77 75 75 75 73 69 68 73 75 76 76 74 72 72 72
76 76 76 77 77 78 79 79 79 79 80 80 82 83 84 84 85 85 84 83 82 82 82 82 82 82 82 82 82 82 81 81 81 81 82 82 81 80 80 81 84 83 80 78 78 78 77 77 77 75 73 73
76 77 77 77 77 78 79 80 80 81 80 81 81 83 84 85 85 86 86 86 85 84 84 84 84 83 83 83 83 83 83 82 82 82 82 83 83 83 82 83 84 85 85 84 83 82 80 78 78 77 76 75
74 75 76 77 77 78 78 80 81 82 82 82 82 83 84 86 86 86 87 87 87 87 86 85 85 85 85 85 85 84 84 84 84 84 83 83 84 85 85 84 85 85 85 82 81 82 81 81 81 79 79 77
72 73 75 77 78 78 79 79 79 81 82 82 83 83 84 85 87 87 88 88 89 89 88 88 87 87 87 87 87 86 86 86 86 86 85 85 85 86 86 86 86 87 88 86 85 84 82 83 84 81 81 81
68 71 74 76 77 79 80 80 80 80 81 81 83 83 84 84 85 87 89 90 90 90 90 90 89 89 89 89 89 88 88 87 87 87 87 88 87 87 87 87 87 88 89 89 90 89 86 86 87 84 82 83
58 64 69 73 76 77 79 80 81 82 82 82 82 84 84 84 84 86 88 90 91 91 91 91 91 91 91 91 91 91 90 89 89 89 89 89 89 89 89 88 88 89 90 90 91 91 90 89 88 86 85 84
44 50 57 64 69 74 77 79 81 83 83 83 83 83 84 84 84 85 86 88 90 91 92 93 93 93 92 93 93 93 92 92 91 91 91 91 91 91 91 90 90 90 91 91 91 91 91 90 89 88 87 85
37 39 43 48 54 61 68 74 79 83 84 85 85 85 84 84 85 85 86 87 88 90 91 93 93 93 94 94 94 95 94 94 94 93 93 93 93 93 92 92 91 92 92 92 91 91 91 91 90 89 88 87
38 38 39 39 40 43 49 57 67 76 82 86 87 86 86 86 85 86 86 86 87 88 90 92 93 93 94 95 95 96 96 96 96 96 96 96 95 95 95 94 93 93 94 93 93 93 92 91 90 90 89 88
39 39 40 40 39 37 37 40 46 56 67 77 84 88 89 88 87 87 87 87 87 87 89 90 92 93 93 94 95 97 97 98 97 97 97 98 98 98 97 96 95 95 95 95 94 94 93 92 92 91 89 89
39 39 40 41 41 40 38 38 38 40 46 55 66 78 86 89 90 89 88 88 88 87 88 90 91 92 92 93 95 96 97 98 98 99 99 99 100 100 100 99 98 97 96 96 96 96 95 94 94 92 91 90
37 38 39 40 41 41 41 40 39 38 38 40 45 55 67 79 87 90 90 89 89 88 89 90 91 92 92 92 94 96 97 98 98 99 100 100 101 101 101 101 101 99 98 97 97 97 96 95 95 94 93 92
37 36 36 38 39 40 40 39 39 40 39 39 39 41 47 56 68 80 88 91 91 90 90 91 92 93 93 93 95 97 97 97 98 99 100 100 101 102 102 103 102 101 100 99 99 98 97 97 96 95 95 94
Wind_Direction
254 254 254 254 254 253 252 252 251 251 252 253 253 253 253 253 254 255 256 256 257 255 252 249 248 247 246 245 245 245 243 242 241 240 240 241 242 242 242 240 239 239 239 238 238 239 240 241 242 242 243 244
253 253 253 253 254 253 253 252 251 251 251 251 252 253 252 252 253 254 255 255 256 256 256 255 253 252 250 247 245 245 244 244 242 241 241 241 241 241 242 241 240 239 239 238 238 237 238 240 241 242 242 242
253 252 252 252 252 252 252 252 252 251 251 251 251 251 252 251 251 251 253 254 255 255 256 256 255 255 254 251 249 247 246 246 244 243 242 242 242 242 242 241 241 240 239 239 238 237 237 238 240 240 241 241
253 252 251 251 251 251 251 251 252 252 251 251 251 251 251 251 251 250 251 252 253 253 254 255 255 254 253 253 253 252 251 249 247 245 244 243 243 243 242 242 242 242 241 240 239 238 237 237 239 239 240 240
253 252 251 251 250 250 250 250 250 251 251 251 251 251 251 251 250 250 249 250 251 252 252 253 254 252 251 251 252 253 254 253 250 248 246 245 245 244 244 243 242 242 242 241 240 239 238 237 238 239 239 239
253 253 252 251 250 250 249 249 249 249 250 250 250 250 250 250 250 250 249 249 249 250 250 251 251 250 249 248 246 246 247 248 249 249 247 245 245 245 245 244 243 242 242 243 242 241 240 239 238 239 239 239
255 254 253 252 251 251 250 249 249 249 249 249 249 249 249 249 250 249 249 248 248 248 249 249 249 248 247 246 243 241 237 237 243 247 247 246 245 245 246 246 245 243 243 243 243 242 241 240 240 239 239 240
256 255 254 253 252 252 251 250 249 249 248 248 248 248 248 248 248 248 248 248 247 247 247 247 247 247 245 243 242 241 239 237 239 243 247 248 247 246 246 246 246 245 244 243 243 243 242 241 241 240 240 240
255 255 255 254 253 252 252 251 250 249 248 248 248 247 247 247 247 247 247 247 246 246 245 245 245 245 244 242 240 240 240 240 239 241 244 247 248 247 247 246 246 245 244 244 244 243 242 242 242 241 241 240
255 254 255 254 254 253 252 251 251 250 249 248 247 247 246 246 246 246 246 246 245 245 244 244 243 243 243 243 241 239 239 240 240 240 241 244 246 247 247 247 246 246 244 244 245 244 242 241 241 241 241 241
254 253 253 253 253 253 253 252 251 251 250 249 248 247 246 246 246 245 245 245 245 244 244 243 242 242 242 242 242 240 239 239 239 239 239 240 241 243 245 247 246 246 246 244 245 245 243 242 241 241 241 241
255 253 252 252 252 253 253 252 252 251 250 250 248 247 246 246 246 245 245 244 244 244 244 243 242 241 241 241 241 241 240 239 239 238 238 237 238 238 241 246 247 247 246 245 244 244 244 243 241 241 241 242
256 254 253 252 251 251 252 252 252 252 251 250 249 248 247 246 245 245 244 244 244 244 243 243 242 241 241 241 240 240 241 240 239 238 237 237 237 236 237 243 247 246 246 245 244 243 244 243 242 241 241 242
256 256 255 253 252 251 250 251 251 252 252 251 250 249 248 247 246 245 244 243 243 243 243 243 243 242 241 241 240 240 240 240 240 239 238 237 236 236 235 237 239 241 244 245 244 243 243 244 243 242 241 241
256 256 256 255 254 252 251 250 250 250 251 251 251 250 249 248 247 246 244 243 242 242 242 242 242 242 241 240 240 240 240 240 240 240 239 238 237 236 237 238 238 239 242 244 244 244 243 243 244 243 242 241
255 255 255 255 254 253 252 250 249 249 249 249 249 250 249 248 248 247 246 244 243 242 241 241 241 241 241 241 240 239 239 239 239 239 239 239 237 235 235 238 240 241 243 243 243 243 243 243 243 244 244 243
255 254 254 254 254 253 252 251 250 249 248 248 248 248 248 248 248 247 247 246 244 243 242 241 241 240 240 240 240 239 239 239 239 239 238 238 238 234 230 232 236 239 240 241 241 241 242 242 242 243 244 244
256 255 254 254 254 253 253 252 251 250 249 248 247 247 247 247 247 247 247 246 245 244 243 242 241 240 240 240 239 239 238 238 238 238 238 237 238 235 230 229 233 235 235 237 239 241 243 243 242 242 243 244
256 255 254 254 254 254 253 253 252 251 250 248 248 247 246 246 246 245 246 246 245 245 244 243 242 241 240 240 239 238 238 238 238 238 238 237 237 236 233 231 233 235 236 237 239 241 242 244 244 243 243 243
257 256 256 256 255 255 254 254 253 252 251 250 249 247 247 246 245 245 245 245 245 245 244 244 243 242 241 240 239 239 237 237 237 237 237 237 237 235 234 234 235 236 238 241 241 241 241 242 244 244 243 243
257 257 257 257 257 257 256 255 254 253 253 252 251 249 248 247 246 245 244 244 244 244 244 244 244 243 242 241 240 239 238 237 237 237 237 237 237 236 235 234 235 236 237 239 241 242 242 241 241 242 244 243
258 256 256 256 256 256 257 257 256 255 254 253 252 251 250 249 247 246 245 244 244 244 244 244 244 243 243 242 241 240 239 238 237 236 236 237 237 237 236 235 235 236 237 237 238 240 241 241 241 240 242 243
262 259 256 254 253 254 255 256 256 256 256 255 254 252 251 250 249 248 246 245 244 243 243 243 244 244 243 243 242 241 240 239 238 237 236 236 237 237 237 236 236 236 237 237 238 239 239 241 243 242 241 242
268 264 260 257 255 253 253 254 255 255 255 255 254 254 253 251 250 249 248 247 245 244 243 243 243 243 244 244 243 242 241 240 239 238 237 237 236 237 237 237 237 237 237 237 238 239 240 241 242 243 242 241
277 272 267 263 260 257 254 253 253 254 254 254 254 254 253 252 251 250 249 248 247 245 244 243 243 243 243 244 244 243 242 241 240 239 238 238 237 237 237 237 238 238 238 238 238 239 240 240 241 242 242 242
287 282 276 270 266 263 259 255 254 253 253 254 254 253 253 252 252 251 250 249 248 247 245 244 243 242 242 243 243 243 242 242 241 240 239 239 238 237 237 237 237 238 238 238 238 239 239 240 241 241 241 242
288 287 284 280 276 271 266 261 257 255 253 253 253 253 253 253 252 251 250 249 248 247 246 245 244 243 242 242 242 242 242 242 242 241 240 240 239 238 237 237 237 238 238 238 239 239 239 240 240 241 241 241
286 284 283 283 281 279 276 271 265 261 257 255 253 253 253 253 252 251 250 249 248 247 246 245 245 244 243 243 242 242 242 242 242 241 241 240 240 239 238 237 237 237 238 238 238 239 239 239 240 240 241 242
286 283 281 281 281 281 279 277 275 271 266 261 257 254 253 253 253 252 251 250 249 247 246 245 244 244 243 243 243 242 242 241 242 242 241 241 240 239 239 238 237 237 237 237 238 238 238 239 239 240 240 241
289 285 283 281 280 279 279 278 278 277 275 271 266 261 257 254 253 253 252 251 249 248 246 244 244 243 243 242 243 243 242 242 242 242 242 242 241 240 240 239 238 237 237 238 237 238 238 238 239 239 239 240
293 289 285 283 282 282 281 280 278 277 275 274 272 269 265 260 257 254 253 252 251 249 247 246 244 244 242 242 242 243 243 242 242 242 242 242 242 241 241 240 239 238 238 238 238 238 238 238 238 239 239 239